Location: Arbon
(43.0005°N, 0.7472°E)
Time: 22:42:47
(UTC+00:00)

Altair - Pass Details

Date: 04 December 2020
Orbit: 1501 x 1682 km, 47.2° (Epoch: 26 January)

Event Time Altitude Azimuth Distance (km) Brightness Sun altitude
Rises 02:49:44 0° 292° (WNW) 4,638 - -47.0°
Reaches altitude 10° 02:53:29 10° 279° (W) 3,654 - -46.4°
Maximum altitude 03:00:14 24° 231° (SW) 2,741 - -45.2°
Drops below altitude 10° 03:07:05 10° 182° (S) 3,688 - -44.0°
Exits shadow 03:09:41 - 173° (S) 4,351 9.8 -43.5°
Sets 03:10:55 0° 169° (S) 4,692 10.1 -43.3°
